Other Public Products
Issued by NWS Charleston, SC

Current Version | Previous Version | Graphics & Text | Print | Product List | Glossary On
Versions: 1 2 3 4 5 6 7 8 9 10 11 12 13 14 15 16 17 18 19 20 21 22 23 24 25 26 27 28 29 30 31 32 33 34 35 36 37 38 39 40 41 42 43 44 45 46 47 48 49 50
000 FPUS82 KCHS 200827 OPUCHS TEST...KCHS/KSAV Gateway Observations...TEST National Weather Service Charleston SC 400 AM EDT THU JUL 20 2017 NOTE: "fair" indicates few or no clouds below 12,000 feet with no significant weather and/or obstructions to visibility. SCZ050-WAZ558-NCZ071-TXZ119-213-PAZ071-DCZ001-FLZ074-172-MI076- NYZ176-178-MAZ016-IL014-TNZ027-NJZ106-GAZ044-MD014-200900- ...Gateway Observations for Charleston International... CITY SKY/WX TMP DP RH WIND PRES REMARKS Chas Airport CLEAR 71 70 96 CALM 30.06F Seattle CLOUDY 61 54 77 SW12 30.06R Charlotte PTCLDY 73 68 84 S6 30.08F Dallas DFW CLEAR 84 72 67 S7 30.06S Dallas Love CLEAR 85 71 63 S12 30.07S HX 90 Philladelphia CLEAR 80 74 81 SW6 29.98F Wash National PTCLDY 81 75 82 S5 30.00F Baltimore PTCLDY 78 75 90 CALM 30.00F Miami CLOUDY 83 75 77 SE3 30.04F HX 90 Detroit CLOUDY 73 71 93 E3 30.00F Newark PTCLDY 80 70 71 SW5 29.96F Laguardia PTCLDY 82 72 71 CALM 29.95F J F K MOCLDY 79 76 90 S5 29.97F Boston Logan CLEAR 76 63 64 W6 29.94S Ft. Lauderdale MOCLDY 82 77 84 CALM 30.04S HX 90 Chicago O`Hare CLOUDY 70 67 90 S7 29.99F Chicago Midway CLOUDY 71 68 90 S7 29.99F Houston Bush PTCLDY 80 76 87 S3 30.08F Houston Hobby PTCLDY 80 75 84 S5 30.08S Nashville PTCLDY 76 73 91 S3 30.11F Atlanta PTCLDY 77 70 79 W5 30.10S $$ GAZ044-118-TXZ119-213-NCZ071-DCZ001-MDZ014-506-PAZ021-071-NJZ106- NYZ176-178-MAZ106-OHZ011-021-055-MIZ076-KYZ091-ILZ014-INZ047- MNZ060-ONZ431-200900- ...Gateway Observations for Savannah International... CITY SKY/WX TMP DP RH WIND PRES REMARKS Savannah Arpt CLEAR 74 72 93 CALM 30.07F Atlanta PTCLDY 77 70 79 W5 30.10S Charlotte PTCLDY 73 68 84 S6 30.08F Dallas DFW CLEAR 84 72 67 S7 30.06S Houston Bush PTCLDY 80 76 87 S3 30.08F Wash National PTCLDY 81 75 82 S5 30.00F Wash Dulles PTCLDY 74 71 91 S3 30.01F Baltimore PTCLDY 78 75 90 CALM 30.00F Philadelphia CLEAR 80 74 81 SW6 29.98F Newark PTCLDY 80 70 71 SW5 29.96F Laguardia PTCLDY 82 72 71 CALM 29.95F J F K MOCLDY 79 76 90 S5 29.97F Boston CLEAR 76 63 64 W6 29.94S Pittsburg PTCLDY 71 68 90 CALM 30.05F Akron CLOUDY 72 66 81 S3 30.05F Cleveland PTCLDY 75 66 73 SW6 30.04F Cincinnati CLEAR 68 68 100 CALM 30.08F Columbus CLOUDY 69 69 100 S3 30.05F FOG Detroit CLOUDY 73 71 93 E3 30.00F Chicago O`Hare CLOUDY 70 67 90 S7 29.99F Minneapolis CLOUDY 70 67 90 N7 29.93R Indianapolis PTCLDY 75 71 87 NW6 30.07F Toronto Canada MOCLDY 63 55 77 NW6 29.99F $$

USA.gov is the U.S. government's official web portal to all federal, state and local government web resources and services.